Columbia, SC

1:08 PM EDT on April 25, 2017 (GMT -0400)
Columbia Metro

Weather History for KCAE - March, 2013

Change the Weather History Date:

Sunday, March 10, 2013

  Actual Average Record
Temperature  
Mean Temperature 53 °F 54 °F  
Max Temperature 72 °F 67 °F 91 °F (1974)
Min Temperature 34 °F 42 °F 19 °F (1932)
Degree Days  
Heating Degree Days 12 11  
Month to date heating degree days 185 125  
Since 1 July heating degree days 1905 2224  
Cooling Degree Days 0 0  
Month to date cooling degree days 0 0  
Year to date cooling degree days 25 4  
Growing Degree Days 3 (Base 50)    
Moisture  
Dew Point 35 °F    
Average Humidity 55    
Maximum Humidity 85    
Minimum Humidity 24    
Precipitation  
Precipitation 0.00 in 0.12 in 1.37 in (1936)
Month to date precipitation 0.02 1.29  
Year to date precipitation 6.74 8.48  
Sea Level Pressure  
Sea Level Pressure 30.23 in    
Wind  
Wind Speed 4 mph (ESE)    
Max Wind Speed 16 mph    
Max Gust Speed 24 mph    
Visibility 9 miles    
Events      
T = Trace of Precipitation, MM = Missing Value Source: NWS Daily Summary

Daily Weather History Graph

Daily Weather History Graph

Search for Another Location

Airport or City:

Trip Planner

Search our weather history database for the weather conditions in past years. The results will help you decide how hot, cold, wet, or windy it might be!

Date:

Astronomy

Mar. 10, 2013 Rise Set
Actual Time 7:41 AM EDT 7:28 PM EDT
Civil Twilight 7:16 AM EDT 7:53 PM EDT
Nautical Twilight 6:47 AM EDT 8:22 PM EDT
Astronomical Twilight 6:18 AM EDT 8:51 PM EDT
Moon 6:38 AM EDT (3/10) 6:35 PM EDT (3/10)
Length of Visible Light 12h 37m
Length of Day
11h 47m
Waning Crescent, 2% of the Moon is Illuminated
Mar 10
Waning Crescent
Mar 11
New
Mar 19
First Quarter
Mar 27
Full
Apr 3
Last Quarter

Hourly Weather History & Observations

Time (EDT) Temp. Dew Point Humidity Pressure Visibility Wind Dir Wind Speed Gust Speed Precip Events Conditions
12:56 AM 39.0 °F 33.1 °F 79% 30.27 in 8.0 mi Calm Calm - N/A   Clear
1:56 AM 37.0 °F 32.0 °F 82% 30.26 in 10.0 mi Calm Calm - N/A   Clear
3:56 AM 37.9 °F 32.0 °F 79% 30.25 in 10.0 mi Calm Calm - N/A   Clear
4:56 AM 37.0 °F 32.0 °F 82% 30.25 in 10.0 mi Calm Calm - N/A   Clear
5:56 AM 36.0 °F 30.9 °F 82% 30.25 in 7.0 mi Calm Calm - N/A   Clear
6:56 AM 35.1 °F 30.9 °F 85% 30.25 in 9.0 mi Calm Calm - N/A   Scattered Clouds
7:56 AM 35.6 °F 30.2 °F 81% 30.26 in 7.0 mi Calm Calm - N/A   Mostly Cloudy
8:56 AM 39.9 °F 35.1 °F 83% 30.29 in 6.0 mi Calm Calm - N/A   Haze
9:56 AM 46.9 °F 37.9 °F 71% 30.30 in 8.0 mi Calm Calm - N/A   Mostly Cloudy
10:56 AM 57.0 °F 37.0 °F 47% 30.30 in 10.0 mi Calm Calm - N/A   Scattered Clouds
11:56 AM 61.0 °F 36.0 °F 39% 30.28 in 10.0 mi Calm Calm - N/A   Mostly Cloudy
12:56 PM 64.0 °F 37.0 °F 37% 30.26 in 10.0 mi Calm Calm - N/A   Scattered Clouds
1:56 PM 66.9 °F 37.9 °F 34% 30.22 in 10.0 mi East 5.8 mph - N/A   Scattered Clouds
2:56 PM 70.0 °F 35.1 °F 28% 30.19 in 10.0 mi ESE 11.5 mph 18.4 mph 0.00 in   Partly Cloudy
3:56 PM 70.0 °F 34.0 °F 27% 30.19 in 10.0 mi ESE 9.2 mph - N/A   Partly Cloudy
4:56 PM 72.0 °F 32.0 °F 23% 30.17 in 10.0 mi SE 9.2 mph 17.3 mph N/A   Partly Cloudy
5:56 PM 70.0 °F 35.1 °F 28% 30.17 in 10.0 mi SE 11.5 mph - N/A   Mostly Cloudy
6:56 PM 66.9 °F 35.1 °F 31% 30.17 in 10.0 mi ESE 8.1 mph - N/A   Mostly Cloudy
7:56 PM 63.0 °F 37.0 °F 38% 30.18 in 10.0 mi East 4.6 mph - N/A   Mostly Cloudy
8:56 PM 60.1 °F 37.0 °F 42% 30.19 in 10.0 mi ESE 3.5 mph - N/A   Scattered Clouds
9:56 PM 55.9 °F 37.9 °F 51% 30.19 in 10.0 mi ESE 8.1 mph - N/A   Clear
10:56 PM 55.9 °F 39.9 °F 55% 30.21 in 10.0 mi ESE 6.9 mph - N/A   Clear
11:56 PM 54.0 °F 41.0 °F 62% 30.21 in 10.0 mi ESE 4.6 mph - N/A   Clear
12:56 AM 53.1 °F 41.0 °F 64% 30.20 in 10.0 mi East 3.5 mph - N/A   Clear